KF5DKO Weather Reports


time (UTC)temp
C
wind
direction
speed
KPH
gust
KPH
rain 1hr
cm
rain 24hr
cm
rain mn
cm
humidity
%
barometer
mb
20260508102559 20 40 0.0 6.4 0.00 0.05 0.00 98 1012.2
20260508102059 20 42 0.0 3.2 0.00 0.05 0.00 98 1012.2
20260508101559 20 42 0.0 3.2 0.00 0.05 0.00 98 1012.2
20260508101100 20 42 0.0 0.0 0.00 0.05 0.00 98 1012.2
20260508100602 20 42 0.0 0.0 0.00 0.05 0.00 98 1012.2
20260508095559 20 42 0.0 0.0 0.00 0.05 0.00 98 1011.8
20260508095059 20 42 0.0 0.0 0.00 0.05 0.00 98 1011.8
20260508094602 20 42 0.0 0.0 0.00 0.05 0.00 98 1011.8
20260508094058 20 42 0.0 0.0 0.00 0.05 0.00 98 1011.6
20260508093558 20 42 0.0 3.2 0.00 0.05 0.00 98 1011.6
20260508093105 20 42 0.0 4.8 0.00 0.05 0.00 98 1011.6
20260508092558 20 42 1.6 4.8 0.00 0.05 0.00 98 1011.7
20260508092057 20 42 0.0 6.4 0.00 0.05 0.00 98 1011.7
20260508091611 20 42 0.0 6.4 0.00 0.05 0.00 98 1011.7
20260508091057 20 40 0.0 4.8 0.00 0.05 0.00 98 1011.7
20260508090556 20 40 0.0 3.2 0.00 0.05 0.00 98 1011.7
20260508090108 20 40 0.0 4.8 0.00 0.05 0.00 98 1011.7
20260508085556 20 40 0.0 4.8 0.00 0.05 0.00 98 1011.6
20260508085100 20 40 0.0 9.7 0.00 0.05 0.00 98 1011.6
20260508084557 20 41 1.6 9.7 0.00 0.05 0.00 98 1011.6
20260508084056 20 41 0.0 8.0 0.00 0.05 0.00 98 1011.7
20260508083555 20 40 0.0 6.4 0.00 0.05 0.00 98 1011.7
20260508083107 20 40 1.6 9.7 0.00 0.05 0.00 98 1011.7
20260508082555 20 40 1.6 9.7 0.00 0.05 0.00 98 1011.7
20260508082055 20 42 1.6 8.0 0.00 0.05 0.00 98 1011.7
20260508081601 20 42 1.6 6.4 0.00 0.05 0.00 98 1011.7
20260508081053 20 42 0.0 6.4 0.00 0.05 0.00 98 1011.7
20260508080553 20 42 1.6 6.4 0.00 0.05 0.00 98 1011.7
20260508080101 20 42 0.0 4.8 0.00 0.05 0.00 98 1011.7
20260508075553 20 42 0.0 8.0 0.00 0.05 0.00 98 1011.9
20260508075052 20 42 0.0 8.0 0.00 0.05 0.00 98 1011.9
20260508074558 20 42 0.0 6.4 0.00 0.05 0.00 98 1011.9
20260508074052 20 42 0.0 6.4 0.00 0.05 0.00 98 1012.2
20260508073551 20 43 0.0 4.8 0.00 0.05 0.00 98 1012.2
20260508073052 20 43 0.0 4.8 0.00 0.05 0.00 98 1012.2
20260508072551 20 43 0.0 8.0 0.00 0.05 0.00 98 1012.2
20260508072051 20 42 0.0 11.3 0.00 0.05 0.00 98 1012.2
20260508071551 20 42 1.6 11.3 0.00 0.05 0.00 98 1012.2
20260508071050 20 53 1.6 9.7 0.00 0.05 0.00 98 1011.8
20260508070551 20 68 1.6 4.8 0.00 0.05 0.00 99 1011.8
20260508070051 20 68 0.0 3.2 0.00 0.05 0.00 99 1011.8
20260508065550 20 68 0.0 1.6 0.00 0.05 0.00 99 1012.1
20260508065049 20 68 0.0 1.6 0.00 0.05 0.00 99 1012.1
20260508064551 20 68 0.0 1.6 0.00 0.05 0.00 98 1012.1
20260508064053 20 68 0.0 3.2 0.00 0.05 0.00 98 1012.0
20260508063549 20 68 0.0 4.8 0.00 0.05 0.00 98 1012.0
20260508063048 20 68 0.0 4.8 0.00 0.05 0.00 98 1012.0
20260508062547 20 68 0.0 3.2 0.00 0.05 0.00 98 1012.5
20260508062047 20 68 0.0 3.2 0.00 0.05 0.00 98 1012.5
20260508061547 20 68 0.0 3.2 0.00 0.05 0.00 98 1012.5
20260508061047 20 68 0.0 3.2 0.00 0.05 0.00 98 1012.6
20260508060546 20 68 0.0 3.2 0.00 0.05 0.00 98 1012.6
20260508060048 21 68 0.0 3.2 0.00 0.05 0.00 98 1012.6
20260508055547 21 68 0.0 3.2 0.00 0.05 0.00 98 1012.7
20260508055046 21 68 0.0 3.2 0.00 0.05 0.00 98 1012.7
20260508054547 21 68 0.0 3.2 0.00 0.05 0.00 98 1012.7
20260508054045 21 68 0.0 1.6 0.00 0.05 0.00 98 1013.0
20260508053544 21 68 0.0 3.2 0.00 0.05 0.00 97 1013.0
20260508053052 21 68 0.0 3.2 0.00 0.05 0.00 97 1013.0
20260508052544 21 68 0.0 6.4 0.00 0.05 0.00 97 1013.2
20260508052044 21 68 1.6 6.4 0.00 0.05 0.00 97 1013.2
20260508051546 21 68 0.0 8.0 0.00 0.05 0.00 97 1013.2
20260508051045 21 68 0.0 8.0 0.00 0.05 0.00 97 1013.0
20260508050541 21 67 0.0 6.4 0.00 0.05 0.00 98 1013.0
20260508050041 21 67 0.0 6.4 0.00 0.05 0.00 98 1013.0
20260508045541 21 66 1.6 11.3 0.00 0.05 0.05 98 1013.2
20260508045044 21 65 4.8 11.3 0.00 0.05 0.05 98 1013.2
20260508044541 21 42 1.6 6.4 0.00 0.05 0.05 98 1013.2
20260508044043 21 39 1.6 6.4 0.00 0.05 0.05 98 1013.3
20260508043541 21 36 0.0 3.2 0.00 0.05 0.05 98 1013.3
20260508043048 21 36 0.0 3.2 0.00 0.05 0.05 98 1013.3
20260508042541 21 36 0.0 1.6 0.00 0.05 0.05 98 1013.4
20260508042040 21 36 0.0 0.0 0.00 0.05 0.05 98 1013.4
20260508041541 21 36 0.0 3.2 0.00 0.05 0.05 98 1013.4
20260508041042 21 36 0.0 3.2 0.00 0.05 0.05 98 1013.6
20260508040540 21 36 0.0 3.2 0.00 0.05 0.05 98 1013.6
20260508040040 21 36 0.0 3.2 0.00 0.05 0.05 98 1013.6
20260508035539 21 36 0.0 3.2 0.00 0.05 0.05 98 1013.6
20260508035040 21 36 0.0 3.2 0.00 0.05 0.05 99 1013.6
20260508034547 21 36 0.0 3.2 0.00 0.05 0.05 98 1013.6
20260508034038 21 36 0.0 3.2 0.00 0.05 0.05 98 1013.3
20260508033538 21 36 0.0 3.2 0.00 0.05 0.05 99 1013.3
20260508033038 21 36 0.0 3.2 0.00 0.05 0.05 99 1013.3
20260508032538 22 36 0.0 3.2 0.00 0.05 0.05 98 1013.4
20260508032037 22 36 0.0 0.0 0.00 0.05 0.05 99 1013.4
20260508031538 22 36 0.0 0.0 0.00 0.05 0.05 98 1013.4
20260508031037 22 36 0.0 0.0 0.00 0.05 0.05 98 1013.2
20260508030537 22 36 0.0 0.0 0.00 0.05 0.05 98 1013.2
20260508030038 22 36 0.0 0.0 0.00 0.05 0.05 98 1013.2
20260508025537 22 36 0.0 0.0 0.03 0.05 0.05 98 1013.0
20260508025037 22 36 0.0 0.0 0.03 0.05 0.05 98 1013.0
20260508024537 22 36 0.0 0.0 0.03 0.05 0.05 98 1013.0
20260508024037 22 36 0.0 0.0 0.03 0.05 0.05 98 1013.1
20260508023537 22 36 0.0 0.0 0.03 0.05 0.05 98 1013.1
20260508023036 22 36 0.0 0.0 0.05 0.05 0.05 97 1013.1
20260508022536 22 36 0.0 0.0 0.05 0.05 0.05 97 1013.1
20260508022036 22 36 0.0 0.0 0.05 0.05 0.05 97 1013.1
20260508021536 22 36 0.0 0.0 0.05 0.05 0.05 97 1013.1
20260508021036 22 36 0.0 0.0 0.05 0.05 0.05 96 1012.8
20260508020535 22 36 0.0 0.0 0.05 0.05 0.05 96 1012.8
20260508020038 22 36 0.0 1.6 0.05 0.05 0.05 96 1012.8
20260508015538 22 36 0.0 1.6 0.03 0.03 0.03 96 1012.7
20260508015035 23 36 0.0 1.6 0.03 0.03 0.03 95 1012.7
20260508014535 23 36 0.0 3.2 0.03 0.03 0.03 95 1012.7
20260508014036 23 36 0.0 6.4 0.03 0.03 0.03 94 1012.2
20260508013534 23 36 0.0 8.0 0.03 0.03 0.03 94 1012.2
20260508013036 23 35 1.6 6.4 0.00 0.00 0.00 94 1012.2
20260508012536 23 35 0.0 4.8 0.00 0.00 0.00 93 1012.5
20260508012033 23 35 0.0 3.2 0.00 0.00 0.00 93 1012.5
20260508011533 23 35 0.0 3.2 0.00 0.00 0.00 93 1012.5
20260508011032 23 35 0.0 3.2 0.00 0.00 0.00 93 1011.9
20260508010531 23 35 0.0 3.2 0.00 0.00 0.00 93 1011.9
20260508010033 23 35 0.0 3.2 0.00 0.00 0.00 93 1011.9
20260508005530 23 35 0.0 0.0 0.00 0.00 0.00 93 1012.2
20260508005031 23 35 0.0 0.0 0.00 0.00 0.00 92 1012.2
20260508004532 23 35 0.0 4.8 0.00 0.00 0.00 92 1012.2
20260508004030 23 35 0.0 4.8 0.00 0.00 0.00 92 1012.2
20260508003530 23 35 0.0 4.8 0.00 0.00 0.00 91 1012.2
20260508003030 23 35 0.0 4.8 0.00 0.00 0.00 92 1012.2
20260508002529 23 35 0.0 1.6 0.00 0.00 0.00 92 1011.7
20260508002029 23 35 0.0 1.6 0.00 0.00 0.00 92 1011.7
20260508001528 23 35 0.0 4.8 0.00 0.00 0.00 92 1011.7
20260508001028 23 35 0.0 6.4 0.00 0.00 0.00 92 1011.7
20260508000531 23 35 0.0 3.2 0.00 0.00 0.00 92 1011.7
20260508000027 23 35 0.0 1.6 0.00 0.00 0.00 92 1011.7
20260507235532 23 35 0.0 3.2 0.00 0.00 0.00 91 1011.9
20260507235027 23 35 0.0 3.2 0.00 0.00 0.00 92 1011.9
20260507234537 23 35 0.0 1.6 0.00 0.00 0.00 91 1011.9
20260507234028 23 35 0.0 3.2 0.00 0.00 0.00 91 1012.0
20260507233526 23 35 1.6 4.8 0.00 0.00 0.00 91 1012.0
20260507233026 23 35 0.0 4.8 0.00 0.00 0.00 91 1012.0
20260507232529 23 35 0.0 3.2 0.00 0.00 0.00 92 1012.1
20260507232028 23 35 0.0 3.2 0.00 0.00 0.00 91 1012.1
20260507231525 23 35 0.0 1.6 0.00 0.00 0.00 91 1012.1
20260507231025 23 35 0.0 1.6 0.00 0.00 0.00 91 1011.9
20260507230526 23 35 0.0 0.0 0.00 0.00 0.00 91 1011.9
20260507230025 23 35 0.0 3.2 0.00 0.00 0.00 91 1011.9
20260507225525 23 35 0.0 3.2 0.00 0.00 0.00 90 1011.8
20260507225028 23 35 0.0 3.2 0.00 0.00 0.00 90 1011.8
20260507224527 23 35 0.0 1.6 0.00 0.00 0.00 91 1011.8
20260507224024 23 35 0.0 3.2 0.00 0.00 0.00 91 1011.9
20260507223524 23 35 0.0 3.2 0.00 0.00 0.00 91 1011.9
20260507223024 23 35 0.0 1.6 0.00 0.00 0.00 91 1011.9
20260507222523 23 35 0.0 1.6 0.00 0.00 0.00 91 1012.1
20260507222023 23 35 0.0 1.6 0.00 0.00 0.00 92 1012.1
20260507221524 23 35 0.0 1.6 0.00 0.00 0.00 93 1012.1
20260507221023 23 35 0.0 1.6 0.00 0.00 0.00 92 1011.8
20260507220525 23 35 0.0 3.2 0.00 0.00 0.00 91 1011.8
20260507220023 23 35 0.0 4.8 0.00 0.00 0.00 92 1011.8
20260507215526 23 35 0.0 6.4 0.00 0.00 0.00 93 1011.7
20260507215022 23 34 1.6 6.4 0.00 0.00 0.00 92 1011.7
20260507214526 23 31 0.0 4.8 0.00 0.00 0.00 92 1011.7
20260507214023 23 31 0.0 4.8 0.00 0.00 0.00 93 1011.7
20260507213524 23 31 0.0 3.2 0.00 0.00 0.00 93 1011.7
20260507213022 23 31 0.0 3.2 0.00 0.00 0.00 93 1011.7
20260507212521 23 31 0.0 3.2 0.00 0.00 0.00 93 1011.7
20260507212022 23 31 0.0 6.4 0.00 0.00 0.00 93 1011.7
20260507211522 23 31 1.6 6.4 0.00 0.00 0.00 93 1011.7
20260507211021 23 29 1.6 9.7 0.00 0.00 0.00 93 1011.8
20260507210524 23 26 3.2 9.7 0.00 0.00 0.00 93 1011.8
20260507210026 22 22 0.0 3.2 0.00 0.00 0.00 93 1011.8
20260507205524 22 22 0.0 8.0 0.00 0.00 0.00 94 1011.7
20260507205022 22 22 3.2 8.0 0.00 0.00 0.00 94 1011.7
20260507204520 22 21 1.6 6.4 0.00 0.00 0.00 94 1011.7
20260507204020 22 19 1.6 6.4 0.00 0.00 0.00 95 1012.1
20260507203527 22 13 1.6 6.4 0.00 0.00 0.00 95 1012.1
20260507203020 22 14 0.0 6.4 0.00 0.00 0.00 95 1012.1
20260507202519 22 13 0.0 8.0 0.00 0.00 0.00 96 1012.2
20260507202020 22 13 1.6 11.3 0.00 0.00 0.00 95 1012.2
20260507201520 22 11 0.0 12.9 0.00 0.00 0.00 95 1012.2
20260507201024 22 350 3.2 12.9 0.00 0.00 0.00 95 1012.2
20260507200520 22 355 4.8 8.0 0.00 0.00 0.00 95 1012.2
20260507200021 22 355 1.6 9.7 0.00 0.00 0.00 96 1012.2
20260507195519 22 355 1.6 11.3 0.00 0.00 0.00 96 1012.2
20260507195019 22 360 1.6 11.3 0.00 0.00 0.00 96 1012.2
20260507194519 22 344 3.2 11.3 0.00 0.00 0.00 95 1012.2
20260507194020 22 342 3.2 8.0 0.00 0.00 0.00 95 1012.3
20260507193520 22 346 1.6 6.4 0.00 0.00 0.00 96 1012.3
20260507193018 22 346 3.2 11.3 0.00 0.00 0.00 95 1012.3
20260507192518 22 351 3.2 11.3 0.00 0.00 0.00 95 1012.5
20260507192018 22 5 3.2 9.7 0.00 0.00 0.00 95 1012.5
20260507191518 22 13 1.6 8.0 0.00 0.00 0.00 95 1012.5
20260507191017 22 13 1.6 8.0 0.00 0.00 0.00 95 1012.7
20260507190518 22 17 1.6 6.4 0.00 0.00 0.00 95 1012.7
20260507190018 22 5 0.0 4.8 0.00 0.00 0.00 95 1012.7
20260507185518 22 5 1.6 9.7 0.00 0.00 0.00 94 1012.7
20260507185017 22 5 1.6 9.7 0.00 0.00 0.00 94 1012.7
20260507184517 22 11 1.6 9.7 0.00 0.00 0.00 94 1012.7
20260507184116 22 30 1.6 6.4 0.00 0.00 0.00 94 1012.5
20260507183516 22 30 0.0 3.2 0.00 0.00 0.00 94 1012.5
20260507183016 22 30 0.0 4.8 0.00 0.00 0.00 94 1012.5
20260507182517 22 30 0.0 6.4 0.00 0.00 0.00 94 1012.8
20260507182016 22 30 1.6 8.0 0.00 0.00 0.00 95 1012.8
20260507181516 22 28 0.0 8.0 0.00 0.00 0.00 96 1012.8
20260507181016 22 20 0.0 8.0 0.00 0.00 0.00 96 1012.9
20260507180516 22 355 0.0 9.7 0.00 0.00 0.00 96 1012.9
20260507180018 22 355 4.8 9.7 0.00 0.00 0.00 96 1012.9
20260507175515 21 360 0.0 9.7 0.00 0.00 0.00 96 1013.2
20260507175015 21 360 3.2 12.9 0.00 0.00 0.00 96 1013.2
20260507174516 21 348 4.8 12.9 0.00 0.00 0.00 97 1013.2
20260507174014 21 355 1.6 8.0 0.00 0.00 0.00 97 1013.1
20260507173514 21 355 3.2 9.7 0.00 0.00 0.00 97 1013.1
20260507173026 21 348 4.8 9.7 0.00 0.00 0.00 96 1013.1
20260507172515 21 355 1.6 9.7 0.00 0.00 0.00 97 1013.2
20260507172017 21 360 4.8 11.3 0.00 0.00 0.00 97 1013.2
20260507171515 21 350 3.2 11.3 0.00 0.00 0.00 97 1013.2
20260507171014 21 360 3.2 11.3 0.00 0.00 0.00 96 1013.2
20260507170514 21 355 4.8 9.7 0.00 0.00 0.00 96 1013.2
20260507170014 21 15 3.2 6.4 0.00 0.00 0.00 96 1013.2
20260507165513 21 15 1.6 6.4 0.00 0.00 0.00 96 1013.2
20260507165013 21 16 1.6 8.0 0.00 0.00 0.00 96 1013.2
20260507164513 21 17 3.2 8.0 0.00 0.00 0.00 96 1013.2
20260507164013 21 17 1.6 8.0 0.00 0.00 0.00 97 1013.3
20260507163513 21 11 1.6 9.7 0.00 0.00 0.00 97 1013.3
20260507163012 21 360 4.8 12.9 0.00 0.00 0.00 97 1013.3
20260507162512 21 346 4.8 11.3 0.00 0.00 0.00 97 1013.3
20260507162013 21 355 1.6 8.0 0.00 0.00 0.00 98 1013.3
20260507161520 21 360 3.2 9.7 0.00 0.00 0.00 97 1013.3
20260507161012 21 9 3.2 14.5 0.00 0.00 0.00 98 1013.2
20260507160512 21 330 4.8 14.5 0.00 0.00 0.00 98 1013.2
20260507160012 21 341 3.2 11.3 0.00 0.00 0.00 98 1013.2
20260507155511 21 338 1.6 9.7 0.00 0.00 0.00 98 1013.2
20260507155013 21 348 3.2 9.7 0.00 0.00 0.00 98 1013.2
20260507154513 21 340 4.8 12.9 0.00 0.00 0.00 98 1013.2
20260507154012 21 317 4.8 12.9 0.00 0.00 0.00 98 1013.3
20260507153513 21 310 4.8 12.9 0.00 0.00 0.00 98 1013.3
20260507153011 21 331 3.2 9.7 0.00 0.00 0.00 98 1013.3
20260507152512 21 343 4.8 9.7 0.00 0.00 0.00 98 1013.2
20260507152010 21 327 4.8 11.3 0.00 0.00 0.00 98 1013.2
20260507151609 21 330 4.8 11.3 0.00 0.00 0.00 98 1013.2
20260507151008 21 323 4.8 14.5 0.00 0.00 0.00 98 1013.2
20260507150514 21 343 4.8 14.5 0.00 0.00 0.00 99 1013.2
20260507150008 21 331 8.0 14.5 0.00 0.00 0.00 98 1013.2
20260507145509 21 355 6.4 14.5 0.00 0.00 0.00 99 1013.2
20260507145006 21 355 4.8 12.9 0.00 0.00 0.00 99 1013.2
20260507144505 21 332 6.4 12.9 0.00 0.00 0.00 99 1013.2
20260507144005 21 332 3.2 11.3 0.00 0.00 0.00 99 1013.2
20260507143504 21 313 3.2 11.3 0.00 0.00 0.00 99 1013.2
20260507143006 21 340 4.8 9.7 0.00 0.00 0.00 99 1013.2
20260507142504 21 335 6.4 12.9 0.00 0.00 0.00 99 1013.1
20260507142007 21 355 8.0 17.7 0.00 0.00 0.00 99 1013.1
20260507141503 21 321 8.0 17.7 0.00 0.00 0.00 99 1013.1
20260507141002 21 334 6.4 14.5 0.00 0.00 0.00 99 1012.8
20260507140502 21 343 4.8 16.1 0.00 0.00 0.00 99 1012.8
20260507135559 21 13 4.8 12.9 0.00 0.00 0.00 99 1012.8
20260507135059 22 333 4.8 11.3 0.00 0.00 0.00 99 1012.8
20260507134600 22 323 3.2 9.7 0.00 0.00 0.00 99 1012.8
20260507134059 21 311 4.8 11.3 0.00 0.00 0.00 99 1012.7
20260507133558 21 309 6.4 11.3 0.00 0.00 0.00 99 1012.7
20260507133058 21 313 6.4 12.9 0.00 0.00 0.00 98 1012.7
20260507132557 22 298 8.0 12.9 0.00 0.00 0.00 98 1012.7
20260507132056 22 304 8.0 11.3 0.00 0.00 0.00 98 1012.7
20260507131554 22 314 3.2 9.7 0.00 0.00 0.00 98 1012.7
20260507131054 22 319 3.2 11.3 0.00 0.00 0.00 97 1012.6
20260507130554 23 327 6.4 14.5 0.00 0.00 0.00 97 1012.6
20260507130058 23 314 8.0 14.5 0.00 0.00 0.00 97 1012.6
20260507125550 23 310 6.4 14.5 0.00 0.03 0.00 97 1012.2
20260507125148 24 311 8.0 14.5 0.00 0.03 0.00 97 1012.2
20260507124547 25 318 4.8 11.3 0.00 0.03 0.00 97 1012.2
20260507124047 25 252 6.4 11.3 0.00 0.03 0.00 98 1011.9
20260507123547 25 253 6.4 11.3 0.00 0.03 0.00 98 1011.9
20260507123049 25 248 4.8 12.9 0.00 0.03 0.00 98 1011.9
20260507122546 25 244 8.0 12.9 0.00 0.03 0.00 98 1011.7
20260507122046 25 246 6.4 14.5 0.00 0.03 0.00 98 1011.7
20260507121546 25 245 6.4 12.9 0.00 0.03 0.00 98 1011.7
20260507121046 25 250 9.7 12.9 0.00 0.03 0.00 98 1011.5
20260507120545 25 250 4.8 11.3 0.00 0.03 0.00 98 1011.5
20260507120047 25 256 3.2 11.3 0.00 0.03 0.00 98 1011.5
20260507115545 25 246 6.4 12.9 0.00 0.03 0.00 98 1011.2
20260507115044 25 246 6.4 12.9 0.00 0.03 0.00 98 1011.2
20260507114545 25 244 6.4 9.7 0.00 0.03 0.00 98 1011.2
20260507114047 25 241 3.2 12.9 0.00 0.03 0.00 98 1011.1
20260507113543 25 241 3.2 12.9 0.00 0.03 0.00 98 1011.1
20260507113044 25 229 1.6 9.7 0.00 0.03 0.00 98 1011.1
20260507112543 25 229 1.6 8.0 0.00 0.03 0.00 98 1010.9
20260507112043 25 229 1.6 11.3 0.00 0.03 0.00 98 1010.9
20260507111547 25 225 1.6 11.3 0.00 0.03 0.00 98 1010.9
20260507111045 25 239 4.8 12.9 0.00 0.03 0.00 98 1010.7
20260507110542 25 242 4.8 9.7 0.00 0.03 0.00 98 1010.7
20260507110042 25 239 4.8 9.7 0.00 0.03 0.00 98 1010.7
20260507105542 25 240 3.2 11.3 0.00 0.05 0.00 98 1010.6
20260507105044 25 241 6.4 11.3 0.00 0.05 0.00 98 1010.6
20260507104541 25 232 6.4 9.7 0.00 0.05 0.00 98 1010.6
20260507104045 25 230 6.4 9.7 0.00 0.05 0.00 98 1010.5
20260507103539 25 240 3.2 9.7 0.00 0.05 0.00 98 1010.5
20260507103042 25 239 1.6 11.3 0.00 0.05 0.00 97 1010.5